Weather History for New Bern, NC

Change the Weather History Date:

Tuesday, October 8, 2013

  Actual Average Record
Temperature  
Mean Temperature 68 °F 67 °F  
Max Temperature 74 °F 77 °F 90 °F (1962)
Min Temperature 62 °F 57 °F 41 °F (1966)
Degree Days  
Heating Degree Days 0 2  
Month to date heating degree days 0 12  
Since 1 July heating degree days 2 19  
Cooling Degree Days 3 4  
Month to date cooling degree days 63 36  
Year to date cooling degree days 1948 1839  
Growing Degree Days 18 (Base 50)    
Moisture  
Dew Point 64 °F    
Average Humidity 92    
Maximum Humidity 93    
Minimum Humidity 90    
Precipitation  
Precipitation 1.49 in 0.12 in 6.52 in (2005)
Month to date precipitation 1.67 1.01  
Year to date precipitation 34.29 43.70  
Snow  
Snow 0.00 in - - ()
Month to date snowfall 0.0  
Since 1 July snowfall 0.0  
Snow Depth 0.00 in    
Sea Level Pressure  
Sea Level Pressure 30.03 in    
Wind  
Wind Speed 12 mph (NNE)    
Max Wind Speed 24 mph    
Max Gust Speed 31 mph    
Visibility 7 miles    
Events Rain , Thunderstorm    
T = Trace of Precipitation, MM = Missing Value Source: NWS Daily Summary

Daily Weather History Graph

Daily Weather History Graph

Search for Another Location

Airport:

Trip Planner

Search our weather history database for the weather conditions in past years. The results will help you decide how hot, cold, wet, or windy it might be!

Date:

Astronomy

Oct. 08, 2013 Rise Set
Actual Time 7:08 AM EDT 6:42 PM EDT
Civil Twilight 6:43 AM EDT 7:07 PM EDT
Nautical Twilight 6:13 AM EDT 7:36 PM EDT
Astronomical Twilight 5:44 AM EDT 8:06 PM EDT
Moon 10:52 AM EDT (10/8) 9:25 PM EDT (10/8)
Length of Visible Light 12h 24m
Length of Day
11h 33m
Waxing Crescent, 16% of the Moon is Illuminated
Oct 8
Waxing Crescent
Oct 11
First Quarter
Oct 18
Full
Oct 26
Last Quarter
Nov 3
New

Hourly Weather History & Observations

Time (EDT) Temp. Dew Point Humidity Pressure Visibility Wind Dir Wind Speed Gust Speed Precip Events Conditions
12:20 AM 73.4 °F 71.6 °F 94% 29.95 in 6.0 mi North 4.6 mph - N/A   Overcast
12:30 AM 73.4 °F 71.6 °F 94% 29.95 in 6.0 mi NNE 5.8 mph - N/A   Overcast
12:51 AM 73.4 °F 71.6 °F 94% 29.94 in 6.0 mi East 4.6 mph - N/A   Mostly Cloudy
12:54 AM 73.9 °F 72.0 °F 93% 29.95 in 6.0 mi East 4.6 mph - N/A   Mostly Cloudy
1:18 AM 73.4 °F 71.6 °F 94% 29.96 in 2.5 mi ENE 8.1 mph - 0.16 in Rain , Thunderstorm Heavy Rain
1:26 AM 73.4 °F 71.6 °F 94% 29.96 in 1.2 mi ENE 3.5 mph - 0.33 in Rain , Thunderstorm Heavy Rain
1:32 AM 73.4 °F 69.8 °F 88% 29.96 in 3.0 mi ESE 4.6 mph - 0.34 in Rain , Thunderstorm Light Rain
1:42 AM 73.4 °F 69.8 °F 88% 29.96 in 4.0 mi ENE 4.6 mph - 0.38 in Rain Rain
1:54 AM 72.0 °F 68.0 °F 87% 29.96 in 10.0 mi NNW 4.6 mph - 0.38 in Rain , Thunderstorm Light Rain
2:29 AM 69.8 °F 68.0 °F 94% 29.95 in 4.0 mi NW 4.6 mph - 0.09 in Rain Heavy Rain
2:54 AM 70.0 °F 68.0 °F 93% 29.96 in 7.0 mi NW 4.6 mph - 0.11 in Rain Light Rain
3:01 AM 69.8 °F 68.0 °F 94% 29.96 in 6.0 mi NW 6.9 mph - 0.01 in Rain Rain
3:13 AM 71.6 °F 68.0 °F 88% 29.96 in 8.0 mi North 12.7 mph 17.3 mph 0.02 in Rain Light Rain
3:28 AM 71.6 °F 69.8 °F 94% 29.97 in 10.0 mi North 9.2 mph - 0.02 in   Overcast
3:50 AM 71.6 °F 68.0 °F 88% 29.97 in 7.0 mi NNE 9.2 mph - 0.06 in Rain Rain
3:54 AM 71.1 °F 68.0 °F 90% 29.97 in 6.0 mi NNE 9.2 mph - 0.07 in Rain Rain
4:01 AM 71.6 °F 68.0 °F 88% 29.97 in 5.0 mi NNE 10.4 mph - 0.03 in Rain Heavy Rain
4:34 AM 68.0 °F 64.4 °F 88% 29.98 in 8.0 mi NNE 18.4 mph 29.9 mph 0.16 in Rain Rain
4:54 AM 66.9 °F 64.0 °F 90% 29.99 in 10.0 mi NNE 15.0 mph 21.9 mph 0.17 in Rain Light Rain
5:54 AM 64.9 °F 62.1 °F 90% 30.01 in 10.0 mi NNE 16.1 mph 24.2 mph 0.00 in   Overcast
6:34 AM 64.4 °F 60.8 °F 88% 30.04 in 10.0 mi NNE 16.1 mph 26.5 mph N/A   Overcast
6:54 AM 64.0 °F 60.1 °F 87% 30.04 in 10.0 mi NNE 15.0 mph 24.2 mph 0.00 in Rain Light Rain
7:54 AM 62.1 °F 59.0 °F 90% 30.06 in 10.0 mi NNE 15.0 mph 26.5 mph 0.02 in Rain Light Rain
8:54 AM 63.0 °F 60.1 °F 90% 30.08 in 10.0 mi NNE 12.7 mph 20.7 mph 0.00 in   Overcast
9:54 AM 62.1 °F 59.0 °F 90% 30.10 in 10.0 mi North 12.7 mph 20.7 mph 0.00 in   Overcast
10:54 AM 63.0 °F 59.0 °F 87% 30.10 in 5.0 mi NNE 12.7 mph - 0.00 in Rain Light Rain
11:54 AM 63.0 °F 60.1 °F 90% 30.12 in 9.0 mi NNE 12.7 mph 19.6 mph 0.01 in Rain Light Rain
12:54 PM 63.0 °F 60.1 °F 90% 30.11 in 8.0 mi NNE 11.5 mph 19.6 mph 0.03 in Rain Light Rain
1:54 PM 62.1 °F 59.0 °F 90% 30.10 in 7.0 mi NNE 10.4 mph - 0.04 in Rain Light Rain
2:54 PM 62.1 °F 59.0 °F 90% 30.09 in 8.0 mi NNE 12.7 mph - 0.04 in Rain Light Rain
3:54 PM 63.0 °F 60.1 °F 90% 30.10 in 9.0 mi North 11.5 mph - 0.03 in Rain Light Rain
4:54 PM 63.0 °F 60.1 °F 90% 30.09 in 8.0 mi North 11.5 mph 18.4 mph 0.04 in Rain Light Rain
5:54 PM 63.0 °F 60.1 °F 90% 30.09 in 8.0 mi North 10.4 mph 19.6 mph 0.03 in Rain Light Rain
6:54 PM 63.0 °F 60.1 °F 90% 30.09 in 6.0 mi North 13.8 mph - 0.10 in Rain Rain
7:54 PM 62.1 °F 60.1 °F 93% 30.10 in 10.0 mi North 12.7 mph 18.4 mph 0.09 in Rain Light Rain
8:54 PM 63.0 °F 60.1 °F 90% 30.12 in 10.0 mi North 9.2 mph - 0.02 in Rain Light Rain
9:54 PM 62.1 °F 60.1 °F 93% 30.11 in 10.0 mi North 10.4 mph - 0.02 in Rain Light Rain
10:54 PM 62.1 °F 60.1 °F 93% 30.12 in 5.0 mi North 11.5 mph - 0.05 in Rain Light Rain
11:54 PM 63.0 °F 61.0 °F 93% 30.11 in 6.0 mi North 13.8 mph 19.6 mph 0.13 in Rain Rain